Погода Островное

Погода Островное : погода сейчас, прогноз погоды и архив. Всё, что Вы хотите узнать о погоде Островное!

Поиск расширенной информации на нашем сайте:

Другие новости

Новости СМИ2

Главная страница сайта

Новости сайта

03.07.2017

Напоминаем, что на нашем специализированном сайте Метеоцентр.Азия вы можете получить высокодетализированные автоматические прогнозы погоды по пунктам России, СНГ и мира в авиационном формате (включающие направление и скорость ветра, видимость, явления погоды, количество и форму облачности, нижнюю и верхнюю границу облачности).

Рекомендуем: стеклянные торговые витрины

Погода Островное - сегодня

Время (UTC), дата Ветер
(°,м/с) 
Видим.   Явления Облачность Т
(°С)
Тd
(°С)
f(%) Тe
(°С)
Pmin
(гПа)
dP
(гПа)
Po
(мм)
O2
(г/м3)
Тmin Tmax R s Состояние
почвы
18 19.02.18 280 (З) 2{04}  10 км  слаб. снег  10/9 600 м верхняя 
[Sc|Cs]
-22.3 -24.8 80 -25  1005.7  -0.5  745  328           
21 19.02.18 300 (СЗ) 4{07}  20000 м  слаб. снег  10/9 600 м верхняя 
[Sc|Cs]
-22.7 -25.9 75 -29  1003.6  -2.2  743  328  -22.7    56  равномерный
сухой снег
100% 
03 20.02.18 290 (З) 4{08}  10 км  слаб. снег  10/8 600 м верхняя 
[Sc|Cs]
-22.7 -26.7 70 -29  1001.4  -0.9  741  328           
06 20.02.18 280 (З) 4{10}  20000 м  слаб. снег  10/4 600 м средняя, верхняя 
[Sc|Ac trans|Cs]
-24.2 -28.1 70 -30  1001.8  0.3  742  330           
09 20.02.18 300 (СЗ) 5{09}  20000 м  слаб. снег  10/6 600 м средняя 
[Sc|As op]
-23.4 -27.4 70 -30  1002.7  0.9  742  329    -22.3  0.8     
15 20.02.18 270 (З) 2{10}  20000 м  слаб. снег  10/8 600 м средняя 
[Sc|As op]
-23.1 -26.3 75 -26  1006.4  745  330           
18 20.02.18 280 (З) 2{06}  20000 м  слаб. снег  10/8 600 м средняя 
[Sc|As op]
-23 -27 70 -26  1008.9  2.6  747  330           
21 20.02.18 280 (З) 2{05}  20000 м  слаб. снег  10/8 600 м средняя 
[Sc|As op]
-23.4 -26.6 75 -26  1011.7  1.7  749  332  -23.4    0.5  57  равномерный
сухой снег
100% 
03 21.02.18 270 (З) 1{03}  20000 м  {снег}  10/6 600 м средняя, верхняя 
[Sc|Ac trans|Cs]
-21.3 -25.3 70 -22  1015.1  1.5  752  330           
06 21.02.18 210 (ЮЗ) 1{03}  20000 м  {снег}  10/8 600 м средняя, верхняя 
[Sc|Ac trans|Cs]
-21.9 -25.1 75 -22  1015.9  0.7  752  331           
12 21.02.18 180 (Ю) 1{02}  20000 м    10/6 600 м средняя, верхняя 
[Sc|Ac trans|Cs]
-23 -26.3 74 -23  1017.8  0.7  754  333           
15 21.02.18 090 (В) 1{02}  20000 м    10/8 600 м средняя, верхняя 
[Sc|Ac trans|Cs]
-23.3 -25.8 80 -24  1017.8  -0.1  754  334           
18 21.02.18 080 (В) 1{02}  20000 м    9/6 600 м средняя 
[Sc|Ac trans]
-25.3 -28.4 75 -26  1018.3  0.4  754  337           
21 21.02.18 090 (В) 1{02}  20000 м    8/6 600 м средняя 
[Sc|Ac trans]
-27 -30.1 75 -28  1008.7  0.4  754  339  -27      57  равномерный
сухой снег
100% 
03 22.02.18 080 (В) 2{02}  20000 м  слаб. снег  10/8 600 м средняя 
[Sc|Ac As]
-25.5 -29.4 70 -29  1019.7  0.3  755  337           
06 22.02.18 тихо () {02}  20000 м  слаб. снег  10/8 600 м средняя 
[Sc|As op]
-25.2 -29.1 70 -25  1020.5  0.8  755  337           
09 22.02.18 тихо () {02}  20000 м  слаб. снег  10/8 600 м средняя, верхняя 
[Sc|Ac trans|Cs]
-25.2 -28.4 75 -25  1022.3  1.7  757  338    -25.1  0.0     
15 22.02.18 110 (В) 2{03}  20000 м  слаб. снег  10/8 600 м средняя 
[Sc|As op]
-24.4 -27.6 75 -28  1025.2  1.3  759  338           
18 22.02.18 тихо () {03}  20000 м  слаб. снег  10/8 600 м средняя 
[Sc|As op]
-28.2 -31.3 75 -28  1027  1.5  760  343           
21 22.02.18 090 (В) 1{02}  20000 м  {снег}  8/6 600 м средняя, верхняя 
[Sc|Ac trans|Ci fib]
-28.1 -31.1 75 -29  1028.8  1.8  761  344  -29    0.3  57  равномерный
сухой снег
100% 
03 23.02.18 220 (ЮЗ) 1{03}  20000 м    3/1 600 м средняя 
[Sc|Ac trans]
-22.8 -27.6 65 -23  1030.7  0.6  763  337           
06 23.02.18 200 (Ю) 3{04}  20000 м    ясно 
-27 -30.1 75 -32  1031.6  0.7  764  343           
12 23.02.18 110 (В) 2{03}  20000 м    ясно 
-34.8 -38.4 70 -39  1034.7  1.1  766  356           
15 23.02.18 110 (В) 2{03}  20000 м    ясно 
-34.7 -38.4 69 -39  1034.6  -0.1  766  355           
18 23.02.18 070 (В) 1{03}  20000 м    ясно 
-37.1 -41.5 64 -38  1035  0.2  766  359           
Время (UTC), дата Ветер
(°,м/с) 
Видим.   Явления Облачность Т
(°С)
Тd
(°С)
f(%) Тe
(°С)
Pmin
(гПа)
dP
(гПа)
Po
(мм)
O2
(г/м3)
Тmin Tmax R s Состояние
почвы

Для получения пояснительной информации подведите курсор к названию столбца.

ПОГОДА Островное - архив

Всё, что Вы хотите узнать о погоде Островное - удобно и подробно!

Выберите нужную дату (начиная с 1 января 2015* года) и нажмите кнопку "Найти".
Будут отображены архивные сводки погоды по пункту Островное, начиная с указанной даты.


Отображать данные в формате CSV (для использования в таблицах Excel)


Внимание! Наш архив погоды предназначен исключительно для личного некоммерческого использования в познавательных целях. Если Вам необходимы официальные справки о состоянии погоды (для производственных, юридических, коммерческих и т.п. целей), обращайтесь в органы Росгидромета.

*Примечание: данная дата относится к архиву по метеостанциям СССР (Россия, СНГ, Балтия).
Архив по метеостанциям Зарубежной Европы и Азии (кроме Китая) хранится 10 дней, по другим регионам земного шара (Китай, Африка, Америка, Австралия, Океания) - 1 день.

Островное - район местоположения метеостанции


Название, широта, долгота, высота метеостанции:
Островное 68.12°ш. 164.16°д. 94 м над ур. моря [Российская Федерация]

Дополнительная информация

В oтличие oт бoльшинства пoгoдных сайтoв мы публикуем пoдрoбную метеoинфoрмацию в детальнoм прoфессиoнальнoм фoрмате.

Характеристики температуры и влажнoсти вoздуха измеряются на высoте 2 м в тени вдали oт зданий и деревьев.
Скoрoсть ветра измеряется на высoте 10 м (на урoвне рoста челoвека скoрoсть ветра ниже в 1.5-2 раза). Если метеoстанция нахoдится в гoрoде или в лесу, тo скoрoсть ветра занижена на 2-4 м/с пo сравнению с oткрытым местoм. Скoрoсть ветра над акватoриями крупных рек и oзёр, а также на вершинах хoлмoв на 2-5 м/с выше, чем в oбычных услoвиях.
Атмoсфернoе давление в разных тoчках местнoсти мoжет значительнo oтличаться oт давления на метеoстанции, в зависимoсти oт услoвий рельефа (при пoдъёме на 10 м давление пoнижается примернo на 1 мм рт.ст.).